FREGAT R/B (45609 NORAD) Tracking and Keplerian Element Data

This shows tracking and keplerian element data for the satellite.

Feedback or suggestion? Click here.




ElementValue
Catalog45609
NameFREGAT R/B
Epoch Orbit3
Epoch Day145.27156949
Epoch Year2020
RAAN302.9517
Inclination63.8459
Eccentricity0.6959833
Argument of Perigee270.0115
Mean Anonmoly319.1523
Mean Motion2.01420563
Decay Rate-1.284E-05
L11 45609U 20031B 20145.27156949 -.00001284 00000-0 00000+0 0 9990
L22 45609 63.8459 302.9517 6959833 270.0115 319.1523 2.01420563 37

Live tracking and technical data element details for FREGAT R/B (NORAD 45609). FREGAT R/B can be tracked NOW for your location showing map with azimuth and elevation plus other details from your city location.

Track the satellite on the map from your city or location and see movement details for azimuth, elevation, latitude, longitude, range, height, and movement on the map or in text.







IsCatalogInMostPopularTable: catalog: 45609, numindb: -1

Insert: records affected: 1


GetName: 45609 FREGAT R/B

Hit Count: inserted at: Tue, 26 May 2020 04:31:35 GMT